Torna al catalogo

NIMBUS 2 DEB

AttivoSSO
NORAD 40644·DEBRIS·🇺🇸 United States

Lanciato May 15, 1966 da Vandenberg Space Force Base

Loading…

Prossimi Passaggi (prossime 24 ore)

TLE

AggiornatoSource: Space-Track

Epoca: Sep 14, 2026, 13:55 UTC

1 40644U 66040BH  26257.58049052  .00001361  00000-0  23097-2 0  9993
2 40644 100.3439 128.5052 0057768 325.1474  34.5880 13.46703892556054

Traccia NIMBUS 2 DEB in tempo reale con AllMySat

Download on the App Store